Location: Unspecified
(47.6578°N, 23.5640°E)
Time: 04:19:54
(UTC+02:00)

ISS - Pass Details

Date: 30 November 2017
Orbit: 402 x 407 km, 51.6° (Epoch: 10 December)

Event Time Altitude Azimuth Distance (km) Brightness Sun altitude
Rises 19:06:37 0° 250° (WSW) 2,323 1.3 -24.5°
Reaches altitude 10° 19:08:42 10° 252° (WSW) 1,464 0.0 -24.9°
Enters shadow 19:10:33 31° 257° (WSW) 744 -1.9 -25.2°
